Location: Cul de Sac
(18.0387°N, 63.0654°W)
Time: 12:40:13
(UTC+00:00)

LAPAN A2 - Visible Passes

Search period start: 20 September 2021 00:00
Search period end: 30 September 2021 00:00
Orbit: 631 x 649 km, 6.0° (Epoch: 19 September)

Date Brightness Start Highest point End Pass type
(mag) Time Alt. Az. Time Alt. Az. Time Alt. Az.
20 Sep ? 07:48:54 11° SE 07:48:54 11° SE 07:49:11 10° SE visible
20 Sep ? 09:27:52 10° SW 09:30:19 14° S 09:32:45 10° SSE visible
21 Sep ? 08:09:58 14° SSE 08:09:58 14° SSE 08:11:24 10° SSE visible
22 Sep ? 08:31:03 14° S 08:31:03 14° S 08:33:26 10° SSE visible
23 Sep ? 08:52:06 10° SSW 08:53:33 11° S 08:55:08 10° SSE visible
24 Sep ? 23:11:16 10° SSW 23:12:58 12° S 23:14:29 10° SSE visible
25 Sep ? 23:33:04 10° SSW 23:35:29 14° S 23:35:32 14° S visible
26 Sep ? 23:55:09 10° SSW 23:56:36 14° SSW 23:56:36 14° SSW visible
27 Sep ? 22:33:46 10° SSW 22:36:14 14° S 22:38:42 10° SE visible
28 Sep ? 00:17:24 10° SW 00:17:38 11° SW 00:17:38 11° SW visible
28 Sep ? 22:55:53 10° SW 22:58:44 16° S 23:01:17 11° SE visible
29 Sep ? 23:18:08 10° SW 23:21:14 17° S 23:22:19 16° SSE visible
